[[{"header":{"parameterUnit":"m.s-1","parameterCategory":1,"la1":30.2991,"la2":30.254,"lo1":-89.0895,"lo2":-89.0444,"dy":0.0017,"dx":0.0017,"nx":28,"ny":28,"refTime":"2024-04-20T21:00:00:Z","depth":0,"parameterNumber":2,"parameterNumberName":"U-component_of_WINDS"},"data":[0,0,0,0,0,0,0,0,0,0,0,0,0,0,0,0,0,0,0,0,0,0,0,0,0,0,0,0,0,0,0,0,0,0,0,0,0,0,0,0,0,0,0,0,0,0,0,0,0,0,0,0,0,0,0,0,0,0,-1.2943,-1.2943,0,-1.298,-1.298,-1.2981,-1.29,-1.2897,-1.2895,-1.2892,-1.2934,-1.2937,-1.2941,0,0,0,0,0,0,0,0,0,0,0,0,0,-1.2802,-1.2805,-1.2943,-1.2943,-1.2943,-1.298,-1.298,-1.2981,-1.2901,-1.2897,-1.2894,-1.2891,-1.2933,-1.2937,-1.2941,0,0,0,0,0,0,0,0,0,0,0,0,0,-1.2854,-1.2806,-1.2942,-1.2908,-1.2905,-1.298,-1.298,-1.2981,-1.2901,-1.2897,-1.2893,-1.289,-1.2931,-1.2936,-1.2942,-1.3053,0,0,-1.2958,-1.296,0,0,0,0,0,0,0,0,-1.2851,-1.2859,-1.2912,-1.291,-1.2907,-1.2931,-1.2946,-1.3005,-1.2902,-1.2903,-1.2892,-1.2888,-1.2936,-1.2941,-1.2957,-1.3055,-1.3057,-1.2958,-1.2961,-1.2964,-1.2965,0,0,0,0,0,0,0,-1.2848,-1.2857,-1.2957,-1.2913,-1.291,-1.289,-1.2893,-1.2957,-1.2941,-1.2902,-1.2897,-1.2902,-1.2934,-1.2952,-1.2957,-1.3057,-1.2958,-1.2963,-1.2966,-1.2968,-1.3247,-1.3251,0,0,0,0,0,0,-1.2848,-1.2855,-1.2956,-1.2959,-1.2869,-1.2896,-1.2899,-1.2928,-1.294,-1.2938,-1.2905,-1.2898,-1.2945,-1.2951,-1.2958,-1.3089,-1.2964,-1.2969,-1.2972,-1.3243,-1.3248,-1.3253,0,0,0,0,0,0,-1.2846,-1.2858,-1.2955,-1.2905,-1.2916,-1.2903,-1.2935,-1.293,-1.2948,-1.2942,-1.2939,-1.2926,-1.2942,-1.2951,-1.3029,-1.309,-1.2971,-1.2976,-1.3238,-1.3244,-1.325,-1.3353,0,0,0,0,0,0,-1.2842,-1.2858,-1.29,-1.2907,-1.2919,-1.3026,-1.2939,-1.2934,-1.2957,-1.2948,-1.2961,-1.296,-1.2939,-1.3022,-1.3035,-1.3095,-1.298,-1.3233,-1.3241,-1.3248,-1.3344,-1.3362,-1.3377,0,0,0,0,0,-1.2837,-1.2928,-1.2903,-1.2915,-1.2971,-1.3029,-1.3036,-1.301,-1.2962,-1.3005,-1.3,-1.2959,-1.308,-1.3031,-1.3044,-1.3107,-1.3229,-1.3239,-1.3248,-1.3337,-1.3358,-1.3377,0,0,0,0,0,0,-1.2931,-1.2929,-1.29,-1.2996,-1.3013,-1.3016,-1.3069,-1.3034,-1.3067,-1.3057,-1.3024,-1.3027,-1.3113,-1.3117,-1.3062,-1.3214,-1.3146,-1.3159,-1.3209,-1.323,-1.3246,-1.3244,-1.2984,0,0,0,0,0,-1.2962,-1.3009,-1.3004,-1.3089,-1.3099,-1.3083,-1.3107,-1.3085,-1.3102,-1.3109,-1.3111,-1.313,-1.3172,-1.32,-1.3239,-1.3343,-1.3345,-1.3392,-1.3409,-1.3422,-1.3435,-1.349,-1.3511,-1.3284,-1.3284,-1.3284,0,0,-1.3029,-1.3033,-1.3065,-1.3108,-1.3119,-1.3169,-1.309,-1.3146,-1.3182,-1.3118,-1.3193,-1.3194,-1.3213,-1.3304,-1.3345,-1.3311,-1.3497,-1.3435,-1.3445,-1.345,-1.3502,-1.3523,-1.3542,-1.329,-1.3289,-1.3288,0,0,-1.3175,-1.3183,-1.3254,-1.3266,-1.3282,-1.327,-1.3287,-1.3294,-1.3292,-1.3366,-1.3319,-1.3361,-1.3434,-1.3449,-1.3467,-1.3615,-1.3578,-1.3628,-1.3716,-1.3769,-1.3787,-1.3803,-1.3857,-1.3877,-1.364,-1.364,-1.364,0,-1.3257,-1.3329,-1.3296,-1.3355,-1.3375,-1.3316,-1.3389,-1.3402,-1.3431,-1.3446,-1.3407,-1.3496,-1.3505,-1.3599,-1.3635,-1.365,-1.3669,-1.3628,-1.3787,-1.3803,-1.3817,-1.3868,-1.3888,-1.3646,-1.3645,-1.3645,-1.3644,0,-1.3427,-1.3478,-1.3533,-1.3561,-1.3587,-1.3653,-1.363,-1.366,-1.3635,-1.3627,-1.3702,-1.3709,-1.3747,-1.3767,-1.3744,-1.3858,-1.3836,-1.3792,-1.3724,-1.3845,-1.3893,-1.3912,-1.3655,-1.3653,-1.3651,-1.3649,0,0,-1.3638,-1.3644,-1.3665,-1.3677,-1.3689,-1.3728,-1.3789,-1.3825,-1.3852,-1.3873,-1.3925,-1.3986,-1.3945,-1.3965,-1.3942,-1.3989,-1.4106,-1.3939,-1.3939,-1.3971,-1.4232,-1.4267,-1.429,-1.408,-1.4084,-1.4086,-1.4231,0,-1.3784,-1.389,-1.3861,-1.3967,-1.4013,-1.3956,-1.401,-1.4024,-1.4017,-1.4055,-1.4047,-1.4091,-1.4033,-1.4044,-1.4088,-1.4083,-1.4158,-1.4071,-1.4129,-1.4132,-1.4129,-1.4315,-1.4352,-1.4488,-1.4249,-1.4252,-1.4255,0,-1.397,-1.3996,-1.4107,-1.4109,-1.4128,-1.4177,-1.4206,-1.4243,-1.4257,-1.4248,-1.4268,-1.4235,-1.4296,-1.4224,-1.4307,-1.4249,-1.427,-1.427,-1.4275,-1.4281,-1.4203,-1.4328,-1.4531,-1.4552,-1.4283,-1.4281,-1.4279,0,-1.4114,-1.4177,-1.4251,-1.4262,-1.4267,-1.4302,-1.4306,-1.4315,-1.4338,-1.4364,-1.4379,-1.4411,-1.443,-1.4456,-1.4433,-1.4382,-1.452,-1.4446,-1.4515,-1.4516,-1.4549,-1.4548,-1.4761,-1.4559,-1.4559,-1.4559,-1.4558,0,-1.4282,-1.4352,-1.4315,-1.4361,-1.4438,-1.4402,-1.4479,-1.4476,-1.4484,-1.4529,-1.4481,-1.4524,-1.4489,-1.4528,-1.451,-1.4582,-1.459,-1.4585,-1.458,-1.4591,-1.4592,-1.4607,-1.4597,-1.4564,-1.4563,-1.4562,-1.4561,0,-1.4458,-1.4436,-1.4513,-1.451,-1.451,-1.4567,-1.4565,-1.4607,-1.4594,-1.4651,-1.4662,-1.4644,-1.4688,-1.4665,-1.4711,-1.4698,-1.4792,-1.4773,-1.4788,-1.4783,-1.4854,-1.4849,-1.5086,-1.5115,-1.4893,-1.4895,-1.4897,0,-1.4568,-1.462,-1.4622,-1.4647,-1.4654,-1.4696,-1.4718,-1.4684,-1.4709,-1.4727,-1.4767,-1.4806,-1.4836,-1.4908,-1.4899,-1.4934,-1.4916,-1.4997,-1.4921,-1.493,-1.4919,-1.4917,-1.4923,-1.5013,-1.5016,-1.5018,-1.5019,0,-1.4765,-1.4751,-1.4784,-1.4814,-1.4842,-1.4864,-1.4882,-1.4905,-1.4871,-1.4902,-1.4945,-1.4968,-1.5013,-1.5053,-1.5082,-1.5086,-1.5048,-1.5042,-1.506,-1.5074,-1.5081,-1.5079,-1.4831,-1.5038,-1.5036,-1.5035,-1.5034,-1.5033,-1.4912,-1.4956,-1.4963,-1.5002,-1.5011,-1.5028,-1.5068,-1.5059,-1.5094,-1.5128,-1.5105,-1.5156,-1.5166,-1.52,-1.5209,-1.5248,-1.5217,-1.5243,-1.525,-1.5257,-1.5267,-1.5072,-1.5253,-1.5253,-1.5252,-1.5252,-1.5251,0,-1.5109,-1.511,-1.5145,-1.5171,-1.5201,-1.5159,-1.5176,-1.5205,-1.525,-1.5261,-1.5291,-1.534,-1.5377,-1.537,-1.5403,-1.5436,-1.542,-1.5447,-1.5445,-1.5447,-1.5293,-1.5275,-1.5459,-1.5459,-1.5459,-1.5459,-1.5459,-1.5459,-1.5215,-1.5286,-1.5272,-1.5347,-1.5347,-1.5396,-1.5409,-1.5425,-1.5434,-1.549,-1.5521,-1.5514,-1.5518,-1.5551,-1.5583,-1.558,-1.5596,-1.563,-1.562,-1.5478,-1.5458,-1.5438,-1.5421,-1.5633,-1.5633,-1.577,-1.5771,-1.5772]},{"header":{"parameterUnit":"m.s-1","parameterCategory":1,"la1":30.2991,"la2":30.254,"lo1":-89.0895,"lo2":-89.0444,"dy":0.0017,"dx":0.0017,"nx":28,"ny":28,"refTime":"2024-04-20T21:00:00:Z","depth":0,"parameterNumber":3,"parameterNumberName":"V-component_of_WINDS"},"data":[0,0,0,0,0,0,0,0,0,0,0,0,0,0,0,0,0,0,0,0,0,0,0,0,0,0,0,0,0,0,0,0,0,0,0,0,0,0,0,0,0,0,0,0,0,0,0,0,0,0,0,0,0,0,0,0,0,0,-7.5382,-7.5384,0,-7.5541,-7.5543,-7.5545,-7.5453,-7.5448,-7.5444,-7.5439,-7.5597,-7.5605,-7.5614,0,0,0,0,0,0,0,0,0,0,0,0,0,-7.4992,-7.5,-7.5382,-7.5384,-7.5386,-7.5541,-7.5543,-7.5545,-7.5453,-7.5448,-7.5443,-7.5437,-7.5594,-7.5604,-7.5614,0,0,0,0,0,0,0,0,0,0,0,0,0,-7.5157,-7.5002,-7.5382,-7.5359,-7.5359,-7.5541,-7.5543,-7.5546,-7.5455,-7.5448,-7.5441,-7.5435,-7.5591,-7.5603,-7.5616,-7.5828,0,0,-7.5654,-7.566,0,0,0,0,0,0,0,0,-7.5148,-7.5172,-7.536,-7.5361,-7.5361,-7.547,-7.5463,-7.564,-7.5456,-7.5418,-7.5439,-7.5432,-7.556,-7.5575,-7.5619,-7.5835,-7.5842,-7.5655,-7.5663,-7.5668,-7.5672,0,0,0,0,0,0,0,-7.5137,-7.5164,-7.5445,-7.5363,-7.5363,-7.5339,-7.5355,-7.5497,-7.5525,-7.5421,-7.5414,-7.5435,-7.5559,-7.5607,-7.5622,-7.5844,-7.5655,-7.5666,-7.5674,-7.5679,-7.6239,-7.6246,0,0,0,0,0,0,-7.5128,-7.5155,-7.544,-7.545,-7.5236,-7.5351,-7.5369,-7.5442,-7.5523,-7.5529,-7.544,-7.543,-7.5589,-7.5608,-7.5627,-7.588,-7.5668,-7.568,-7.5687,-7.6232,-7.6241,-7.6249,0,0,0,0,0,0,-7.512,-7.5154,-7.5433,-7.5301,-7.5335,-7.5365,-7.5447,-7.5449,-7.5497,-7.5538,-7.5542,-7.5485,-7.5585,-7.561,-7.5778,-7.5884,-7.5686,-7.5697,-7.6223,-7.6235,-7.6245,-7.6387,0,0,0,0,0,0,-7.5109,-7.5152,-7.5234,-7.5304,-7.5342,-7.5584,-7.5454,-7.5457,-7.552,-7.5507,-7.5581,-7.5587,-7.5581,-7.576,-7.5791,-7.5897,-7.5707,-7.6214,-7.6228,-7.6241,-7.6373,-7.6401,-7.6425,0,0,0,0,0,-7.5095,-7.5267,-7.5239,-7.5274,-7.5446,-7.5591,-7.5612,-7.5604,-7.5529,-7.5611,-7.5636,-7.5584,-7.5867,-7.5778,-7.5812,-7.5924,-7.6207,-7.6224,-7.624,-7.6361,-7.6395,-7.6425,0,0,0,0,0,0,-7.5208,-7.5276,-7.5245,-7.5445,-7.5513,-7.5575,-7.5678,-7.5642,-7.5731,-7.5716,-7.57,-7.5718,-7.5893,-7.5925,-7.5825,-7.6132,-7.6025,-7.6049,-7.6105,-7.6138,-7.6164,-7.6153,-7.5717,0,0,0,0,0,-7.5256,-7.537,-7.5422,-7.5593,-7.5629,-7.5648,-7.5711,-7.5699,-7.5767,-7.5795,-7.5833,-7.5901,-7.6004,-7.6073,-7.6171,-7.6377,-7.639,-7.647,-7.6496,-7.6518,-7.6539,-7.6648,-7.6683,-7.6303,-7.6303,-7.6303,0,0,-7.5356,-7.5408,-7.548,-7.5617,-7.5668,-7.5784,-7.5673,-7.58,-7.5885,-7.5814,-7.5976,-7.6006,-7.608,-7.6268,-7.6352,-7.63,-7.6647,-7.6539,-7.6556,-7.6565,-7.6668,-7.6704,-7.6736,-7.6314,-7.6312,-7.631,0,0,-7.5599,-7.565,-7.5797,-7.5851,-7.593,-7.5942,-7.5977,-7.6045,-7.6062,-7.6225,-7.6173,-7.6273,-7.6453,-7.6507,-7.6558,-7.6819,-7.6774,-7.6851,-7.6989,-7.7096,-7.7126,-7.7152,-7.7244,-7.7277,-7.6872,-7.6873,-7.6873,0,-7.5713,-7.5888,-7.5877,-7.6009,-7.607,-7.6012,-7.6159,-7.6211,-7.6318,-7.636,-7.63,-7.6524,-7.6569,-7.6768,-7.6832,-7.6876,-7.6914,-7.6843,-7.7123,-7.7149,-7.7174,-7.7261,-7.7296,-7.6881,-7.688,-7.6879,-7.6879,0,-7.6024,-7.6145,-7.6254,-7.636,-7.6433,-7.6572,-7.6581,-7.6655,-7.6637,-7.6654,-7.6818,-7.6871,-7.6978,-7.7024,-7.7007,-7.722,-7.7185,-7.7125,-7.7016,-7.7219,-7.7301,-7.7334,-7.6894,-7.6891,-7.6888,-7.6886,0,0,-7.6342,-7.644,-7.648,-7.6527,-7.6609,-7.6702,-7.6837,-7.6943,-7.7007,-7.7082,-7.7193,-7.7346,-7.729,-7.7348,-7.7336,-7.743,-7.7631,-7.7357,-7.7359,-7.7405,-7.7868,-7.7913,-7.7952,-7.7602,-7.7608,-7.7613,-7.7861,0,-7.6588,-7.6827,-7.6821,-7.7042,-7.7153,-7.7098,-7.7216,-7.7278,-7.7297,-7.7392,-7.7412,-7.752,-7.7439,-7.7473,-7.7564,-7.7588,-7.7724,-7.757,-7.7703,-7.7708,-7.7687,-7.7995,-7.8043,-7.8274,-7.7893,-7.7899,-7.7903,0,-7.6909,-7.6996,-7.7228,-7.7293,-7.7339,-7.7446,-7.7541,-7.7633,-7.7702,-7.7708,-7.7773,-7.7746,-7.788,-7.7769,-7.7953,-7.7848,-7.7902,-7.7922,-7.793,-7.7942,-7.7818,-7.8014,-7.8348,-7.8383,-7.7953,-7.7949,-7.7945,0,-7.7116,-7.7291,-7.7453,-7.7494,-7.7574,-7.765,-7.7686,-7.7748,-7.7812,-7.7894,-7.7935,-7.8032,-7.8085,-7.8159,-7.8158,-7.8077,-7.8343,-7.8232,-7.8351,-7.8351,-7.8409,-7.8406,-7.8756,-7.8446,-7.8445,-7.8444,-7.8444,0,-7.7392,-7.7536,-7.7547,-7.7646,-7.7805,-7.7795,-7.7952,-7.798,-7.8036,-7.8138,-7.8096,-7.8192,-7.8184,-7.8281,-7.828,-7.8431,-7.8455,-7.8463,-7.8461,-7.8467,-7.8466,-7.8502,-7.8485,-7.8454,-7.8452,-7.845,-7.8448,0,-7.7651,-7.7664,-7.7836,-7.7898,-7.7916,-7.8031,-7.8082,-7.8175,-7.819,-7.832,-7.8349,-7.8372,-7.8484,-7.8489,-7.8617,-7.8616,-7.88,-7.8781,-7.8778,-7.8774,-7.8892,-7.8881,-7.9278,-7.9329,-7.8986,-7.8989,-7.8992,0,-7.7826,-7.7935,-7.8009,-7.8075,-7.8116,-7.8224,-7.8288,-7.8282,-7.8351,-7.8436,-7.8518,-7.8626,-7.8712,-7.8891,-7.8918,-7.9015,-7.8996,-7.9129,-7.9011,-7.9012,-7.8997,-7.8991,-7.9,-7.9152,-7.9156,-7.9159,-7.9161,0,-7.8134,-7.8135,-7.8231,-7.833,-7.8409,-7.8486,-7.8557,-7.8613,-7.8614,-7.8693,-7.8808,-7.8874,-7.9005,-7.9111,-7.9206,-7.924,-7.9201,-7.9198,-7.9231,-7.9237,-7.9231,-7.9235,-7.884,-7.9189,-7.9186,-7.9184,-7.9183,-7.9182,-7.8356,-7.845,-7.8517,-7.8624,-7.8678,-7.8745,-7.8835,-7.8862,-7.8957,-7.9065,-7.9054,-7.918,-7.9243,-7.9366,-7.9408,-7.9505,-7.9459,-7.9507,-7.9518,-7.953,-7.9542,-7.9216,-7.9522,-7.9521,-7.9521,-7.952,-7.9519,0,-7.8661,-7.8701,-7.8801,-7.8902,-7.8987,-7.8944,-7.902,-7.9093,-7.9205,-7.9268,-7.9353,-7.9483,-7.9586,-7.9621,-7.972,-7.9791,-7.9775,-7.9817,-7.9811,-7.9819,-7.9578,-7.954,-7.9828,-7.9828,-7.9828,-7.9828,-7.9827,-7.9827,-7.883,-7.8987,-7.8996,-7.9178,-7.9216,-7.9341,-7.9388,-7.9449,-7.9499,-7.9647,-7.9732,-7.9755,-7.9806,-7.9908,-7.9999,-8.0007,-8.0044,-8.0094,-8.0094,-7.9867,-7.9836,-7.9807,-7.9771,-8.0102,-8.0103,-8.0326,-8.0329,-8.033]}]]